Staples, MN

1:21 AM CDT on June 26, 2017 (GMT -0500)
Staples Municipal

Weather History for KSAZ - March, 2013

Change the Weather History Date:

Sunday, March 10, 2013

  Actual Average Record
Temperature  
Mean Temperature 21 °F -  
Max Temperature 30 °F 27 °F 53 °F (2012)
Min Temperature 12 °F 10 °F -11 °F (2003)
Degree Days  
Heating Degree Days 44    
Moisture  
Dew Point 20 °F    
Average Humidity 87    
Maximum Humidity 100    
Minimum Humidity 80    
Precipitation  
Precipitation 0.00 in - - ()
Sea Level Pressure  
Sea Level Pressure 29.98 in    
Wind  
Wind Speed 12 mph (North)    
Max Wind Speed 18 mph    
Max Gust Speed 24 mph    
Visibility 8 miles    
Events      
Averages and records for this station are not official NWS values.
T = Trace of Precipitation, MM = Missing Value Source: NWS Daily Summary

Daily Weather History Graph

Daily Weather History Graph

Search for Another Location

Airport or City:

Trip Planner

Search our weather history database for the weather conditions in past years. The results will help you decide how hot, cold, wet, or windy it might be!

Date:

Astronomy

Mar. 10, 2013 Rise Set
Actual Time 7:41 AM CDT 7:18 PM CDT
Civil Twilight 7:11 AM CDT 7:48 PM CDT
Nautical Twilight 6:36 AM CDT 8:23 PM CDT
Astronomical Twilight 6:00 AM CDT 8:58 PM CDT
Moon 6:43 AM CDT (3/10) 6:26 PM CDT (3/10)
Length of Visible Light 12h 37m
Length of Day
11h 37m
Waning Crescent, 2% of the Moon is Illuminated
Mar 10
Waning Crescent
Mar 11
New
Mar 19
First Quarter
Mar 27
Full
Apr 2
Last Quarter

Hourly Weather History & Observations

Time (CDT) Temp. Windchill Dew Point Humidity Pressure Visibility Wind Dir Wind Speed Gust Speed Precip Events Conditions
12:13 AM 30.2 °F 20.8 °F 28.4 °F 93% 29.85 in 5.0 mi NW 11.5 mph - N/A   Overcast
12:34 AM 30.2 °F 21.3 °F 28.4 °F 93% 29.85 in 4.0 mi NNW 10.4 mph - N/A   Overcast
12:53 AM 28.4 °F 17.0 °F 28.4 °F 100% 29.85 in 4.0 mi NNW 15.0 mph 18.4 mph N/A   Overcast
1:14 AM 28.4 °F 17.0 °F 28.4 °F 100% 29.85 in 4.0 mi NNW 15.0 mph - N/A   Overcast
1:33 AM 28.4 °F 18.0 °F 28.4 °F 100% 29.86 in 5.0 mi North 12.7 mph 18.4 mph N/A   Overcast
1:53 AM 28.4 °F 17.0 °F 26.6 °F 93% 29.87 in 4.0 mi NNW 15.0 mph 18.4 mph N/A   Overcast
3:14 AM 28.4 °F 19.1 °F 26.6 °F 93% 29.89 in 4.0 mi NNW 10.4 mph - N/A   Overcast
3:33 AM 26.6 °F 16.8 °F 26.6 °F 100% 29.89 in 4.0 mi NNW 10.4 mph - N/A   Overcast
3:53 AM 26.6 °F 16.8 °F 24.8 °F 93% 29.90 in 4.0 mi NNW 10.4 mph - N/A   Overcast
4:14 AM 24.8 °F 14.0 °F 24.8 °F 100% 29.89 in 5.0 mi NNW 11.5 mph - N/A   Overcast
4:33 AM 24.8 °F 12.9 °F 23.0 °F 93% 29.89 in 5.0 mi NNW 13.8 mph 19.6 mph N/A   Overcast
4:53 AM 24.8 °F 12.4 °F 23.0 °F 93% 29.90 in 7.0 mi NNW 15.0 mph 19.6 mph N/A   Overcast
5:13 AM 24.8 °F 15.3 °F 21.2 °F 86% 29.91 in 7.0 mi NNW 9.2 mph - N/A   Overcast
5:33 AM 24.8 °F 15.3 °F 21.2 °F 86% 29.93 in 7.0 mi NNW 9.2 mph - N/A   Overcast
5:52 AM 24.8 °F 13.4 °F 21.2 °F 86% 29.92 in 7.0 mi NNW 12.7 mph - N/A   Overcast
6:13 AM 23.0 °F 11.7 °F 21.2 °F 93% 29.95 in 5.0 mi NNW 11.5 mph - N/A   Overcast
6:34 AM 23.0 °F 11.7 °F 21.2 °F 93% 29.96 in 7.0 mi NNW 11.5 mph - N/A   Overcast
7:34 AM 21.2 °F 10.1 °F 19.4 °F 93% 29.97 in 7.0 mi NNW 10.4 mph - N/A   Overcast
7:53 AM 21.2 °F 9.5 °F 19.4 °F 93% 29.98 in 7.0 mi NNW 11.5 mph - N/A   Overcast
8:13 AM 21.2 °F 8.9 °F 19.4 °F 93% 29.98 in 5.0 mi NNW 12.7 mph - N/A   Overcast
8:34 AM 21.2 °F 7.8 °F 19.4 °F 93% 29.98 in 7.0 mi NNW 15.0 mph 18.4 mph N/A   Overcast
8:53 AM 21.2 °F 7.8 °F 19.4 °F 93% 29.99 in 7.0 mi NNW 15.0 mph 20.7 mph N/A   Overcast
9:13 AM 21.2 °F 8.3 °F 19.4 °F 93% 30.01 in 7.0 mi NNW 13.8 mph 19.6 mph N/A   Overcast
9:33 AM 21.2 °F 9.5 °F 19.4 °F 93% 30.03 in 7.0 mi NNW 11.5 mph 17.3 mph N/A   Overcast
9:53 AM 21.2 °F 9.5 °F 19.4 °F 93% 30.04 in 10.0 mi North 11.5 mph - N/A   Overcast
10:14 AM 21.2 °F 8.3 °F 19.4 °F 93% 30.04 in 10.0 mi North 13.8 mph - N/A   Overcast
10:33 AM 21.2 °F 10.1 °F 19.4 °F 93% 30.04 in 7.0 mi North 10.4 mph - N/A   Overcast
10:53 AM 21.2 °F 8.9 °F 19.4 °F 93% 30.04 in 10.0 mi North 12.7 mph 18.4 mph N/A   Overcast
11:14 AM 21.2 °F 10.9 °F 19.4 °F 93% 30.05 in 10.0 mi North 9.2 mph - N/A   Overcast
11:33 AM 23.0 °F 11.7 °F 19.4 °F 86% 30.05 in 10.0 mi North 11.5 mph 18.4 mph N/A   Overcast
11:53 AM 23.0 °F 11.7 °F 19.4 °F 86% 30.04 in 10.0 mi North 11.5 mph - N/A   Overcast
12:14 PM 23.0 °F 8.7 °F 19.4 °F 86% 30.03 in 10.0 mi North 18.4 mph - N/A   Overcast
12:33 PM 24.8 °F 11.1 °F 21.2 °F 86% 30.02 in 10.0 mi North 18.4 mph - N/A   Overcast
12:53 PM 24.8 °F 13.4 °F 19.4 °F 80% 30.05 in 7.0 mi NNE 12.7 mph 24.2 mph N/A   Overcast
1:14 PM 24.8 °F 15.3 °F 19.4 °F 80% 30.07 in 10.0 mi NNE 9.2 mph 19.6 mph N/A   Overcast
1:33 PM 24.8 °F 13.4 °F 19.4 °F 80% 30.06 in 10.0 mi North 12.7 mph - N/A   Overcast
1:54 PM 24.8 °F 13.4 °F 19.4 °F 80% 30.05 in 10.0 mi North 12.7 mph 19.6 mph N/A   Overcast
2:13 PM 24.8 °F 12.4 °F 19.4 °F 80% 30.02 in 10.0 mi North 15.0 mph - N/A   Overcast
2:33 PM 24.8 °F 12.9 °F 19.4 °F 80% 30.00 in 10.0 mi North 13.8 mph 19.6 mph N/A   Overcast
2:54 PM 24.8 °F 14.0 °F 19.4 °F 80% 30.01 in 10.0 mi North 11.5 mph 18.4 mph N/A   Overcast
3:13 PM 24.8 °F 13.4 °F 19.4 °F 80% 30.01 in 10.0 mi North 12.7 mph 17.3 mph N/A   Overcast
3:33 PM 24.8 °F 14.6 °F 19.4 °F 80% 30.02 in 10.0 mi North 10.4 mph 18.4 mph N/A   Overcast
3:54 PM 24.8 °F 14.6 °F 19.4 °F 80% 30.04 in 10.0 mi North 10.4 mph - N/A   Overcast
4:13 PM 24.8 °F 15.3 °F 19.4 °F 80% 30.04 in 10.0 mi North 9.2 mph - N/A   Overcast
4:33 PM 24.8 °F 14.0 °F 19.4 °F 80% 30.03 in 10.0 mi North 11.5 mph - N/A   Overcast
4:54 PM 24.8 °F 13.4 °F 19.4 °F 80% 30.02 in 10.0 mi North 12.7 mph - N/A   Overcast
5:13 PM 24.8 °F 14.6 °F 19.4 °F 80% 30.01 in 10.0 mi North 10.4 mph - N/A   Overcast
5:33 PM 24.8 °F 15.3 °F 19.4 °F 80% 30.00 in 10.0 mi North 9.2 mph 16.1 mph N/A   Overcast
5:54 PM 24.8 °F 14.6 °F 19.4 °F 80% 29.99 in 10.0 mi North 10.4 mph - N/A   Overcast
6:13 PM 24.8 °F 15.3 °F 19.4 °F 80% 30.01 in 10.0 mi North 9.2 mph - N/A   Overcast
6:33 PM 24.8 °F 15.3 °F 19.4 °F 80% 30.00 in 10.0 mi NNE 9.2 mph 16.1 mph N/A   Overcast
6:54 PM 24.8 °F 16.1 °F 19.4 °F 80% 30.01 in 10.0 mi North 8.1 mph - N/A   Overcast
7:13 PM 24.8 °F 15.3 °F 19.4 °F 80% 30.00 in 10.0 mi North 9.2 mph - N/A   Overcast
7:33 PM 24.8 °F 14.6 °F 19.4 °F 80% 30.00 in 10.0 mi North 10.4 mph - N/A   Overcast
7:53 PM 24.8 °F 14.6 °F 19.4 °F 80% 30.00 in 10.0 mi North 10.4 mph - N/A   Overcast
8:13 PM 23.0 °F 13.9 °F 17.6 °F 80% 30.00 in 10.0 mi North 8.1 mph - N/A   Overcast
8:33 PM 21.2 °F 10.9 °F 17.6 °F 86% 30.00 in 10.0 mi North 9.2 mph - N/A   Mostly Cloudy
9:13 PM 21.2 °F 11.7 °F 17.6 °F 86% 30.00 in 10.0 mi NNW 8.1 mph - N/A   Overcast
9:33 PM 21.2 °F 8.9 °F 17.6 °F 86% 30.00 in 10.0 mi North 12.7 mph - N/A   Overcast
9:53 PM 21.2 °F 10.9 °F 17.6 °F 86% 30.01 in 10.0 mi North 9.2 mph - N/A   Overcast
10:13 PM 21.2 °F 13.6 °F 17.6 °F 86% 30.01 in 10.0 mi NNE 5.8 mph - N/A   Overcast
10:33 PM 21.2 °F 11.7 °F 17.6 °F 86% 30.01 in 10.0 mi North 8.1 mph - N/A   Overcast
10:53 PM 19.4 °F 11.5 °F 15.8 °F 86% 30.00 in 10.0 mi North 5.8 mph - N/A   Mostly Cloudy
11:13 PM 15.8 °F 5.1 °F 12.2 °F 86% 29.99 in 10.0 mi North 8.1 mph - N/A   Scattered Clouds
11:33 PM 12.2 °F 1.7 °F 10.4 °F 92% 29.98 in 10.0 mi NNW 6.9 mph - N/A   Scattered Clouds
11:53 PM 14.0 °F 3.9 °F 12.2 °F 93% 29.98 in 10.0 mi NNW 6.9 mph - N/A   Scattered Clouds
12:13 AM 15.8 °F 6.1 °F 12.2 °F 86% 29.98 in 10.0 mi North 6.9 mph - N/A   Overcast
12:33 AM 17.6 °F 10.7 °F 14.0 °F 86% 29.97 in 10.0 mi North 4.6 mph - N/A   Overcast
12:53 AM 15.8 °F 8.6 °F 12.2 °F 86% 29.97 in 10.0 mi NNW 4.6 mph - N/A   Overcast